sat.trackr.live / text

‹ back to catalog

STARLINK-30069

NORAD 56834 · 2023-079M

PAYLOAD ACTIVE UNKNOWN

§ Identity

Operator
Country
US
Launch date
2023-06-04
Launch site
AFETR
Launch vehicle
Mass (kg)
RCS (m²)

Purposes: comms

External: N2YO · Heavens-Above · Gunter

§ Orbital elements

Epoch: 2026-05-25T03:54:40.766112Z

Period
94.27 min
Inclination
43.0043°
Eccentricity
0.0001337
Mean motion
15.27579421 rev/d
Perigee alt
482.1 km
Apogee alt
484.0 km
Semi-major
6,861.2 km
B*
1.0627e-5
RAAN
31.7766°
Arg perigee
263.4023°
Mean anomaly
96.6676°
Rev number
16,462

§ Raw data

STARLINK-300691 56834U 23079M   26145.16297183  .00000030  00000+0  10627-4 0  99942 56834  43.0043  31.7766 0001337 263.4023  96.6676 15.27579421164628

JSON: /api/v1/satellites/56834 · /tle

For live sub-satellite position, see the globe view (requires WebGL).

§ Visibility from observer

Set your observer location to see the next 7 days of passes ≥ 10°. The values pass through the URL so the page stays shareable.

No JS? Fill the form by hand. The geolocation button needs JavaScript.